Location: Berlin
(52.5170°N, 13.3889°E)
Time: 23:39:05
(UTC+02:00)

LES 1 - Pass Details

Date: 21 June 2025
Orbit: 2779 x 2808 km, 32.1° (Epoch: 12 July)

Event Time Altitude Azimuth Distance (km) Brightness Sun altitude
Rises 02:12:17 0° 257° (WSW) 6,573 12.0 -12.8°
Reaches altitude 10° 02:17:03 10° 248° (WSW) 5,554 11.5 -12.6°
Maximum altitude 02:30:11 33° 192° (SSW) 3,981 10.6 -12.0°
Drops below altitude 10° 02:43:23 10° 136° (SE) 5,567 11.7 -11.3°
Sets 02:48:12 0° 127° (SE) 6,590 12.1 -11.0°
